Bat Cave, NC

3:51 AM EDT on August 26, 2016 (GMT -0400)
Asheville Regional

Weather History for KAVL - March, 2013

Change the Weather History Date:

Thursday, March 7, 2013

  Actual Average Record
Temperature  
Mean Temperature 35 °F 45 °F  
Max Temperature 42 °F 56 °F 82 °F (1974)
Min Temperature 28 °F 34 °F 15 °F (1960)
Degree Days  
Heating Degree Days 30 20  
Month to date heating degree days 208 146  
Since 1 July heating degree days 3149 3363  
Cooling Degree Days 0 0  
Month to date cooling degree days 0 0  
Year to date cooling degree days 0 0  
Moisture  
Dew Point 24 °F    
Average Humidity 68    
Maximum Humidity 85    
Minimum Humidity 51    
Precipitation  
Precipitation 0.00 in 0.13 in 1.30 in (1875)
Month to date precipitation 0.69 0.86  
Year to date precipitation 12.83 8.29  
Snow  
Snow 0.00 in 0.10 in 2.00 in (1957)
Month to date snowfall T 0.5  
Since 1 July snowfall 0.2 7.8  
Snow Depth 0.00 in    
Sea Level Pressure  
Sea Level Pressure 30.21 in    
Wind  
Wind Speed 19 mph (NNW)    
Max Wind Speed 30 mph    
Max Gust Speed 37 mph    
Visibility 10 miles    
Events      
T = Trace of Precipitation, MM = Missing Value Source: NWS Daily Summary

Daily Weather History Graph

Daily Weather History Graph

Search for Another Location

Airport or City:

Trip Planner

Search our weather history database for the weather conditions in past years. The results will help you decide how hot, cold, wet, or windy it might be!

Date:

Astronomy

Mar. 07, 2013 Rise Set
Actual Time 6:51 AM EST 6:31 PM EST
Civil Twilight 6:26 AM EST 6:56 PM EST
Nautical Twilight 5:56 AM EST 7:25 PM EST
Astronomical Twilight 5:27 AM EST 7:55 PM EST
Moon 3:42 AM EST (3/7) 2:24 PM EST (3/7)
Length of Visible Light 12h 30m
Length of Day
11h 39m
Waning Crescent, 20% of the Moon is Illuminated
Mar 7
Waning Crescent
Mar 11
New
Mar 19
First Quarter
Mar 27
Full
Apr 3
Last Quarter

Hourly Weather History & Observations

Time (EST) Temp. Windchill Dew Point Humidity Pressure Visibility Wind Dir Wind Speed Gust Speed Precip Events Conditions
12:54 AM 28.9 °F 17.3 °F 23.0 °F 78% 30.16 in 10.0 mi North 16.1 mph 26.5 mph N/A   Overcast
1:54 AM 28.0 °F 14.9 °F 23.0 °F 81% 30.13 in 10.0 mi North 19.6 mph 35.7 mph N/A   Mostly Cloudy
2:54 AM 28.0 °F 13.6 °F 23.0 °F 81% 30.14 in 10.0 mi North 24.2 mph 35.7 mph N/A   Overcast
3:11 AM 28.4 °F 15.1 °F 23.0 °F 80% 30.10 in 10.0 mi North 20.7 mph 32.2 mph N/A   Overcast
3:54 AM 28.9 °F 15.4 °F 24.1 °F 82% 30.16 in 10.0 mi NNW 21.9 mph 31.1 mph N/A   Overcast
4:54 AM 28.9 °F 14.8 °F 24.1 °F 82% 30.18 in 10.0 mi NNW 24.2 mph 31.1 mph N/A   Overcast
5:54 AM 28.0 °F 13.0 °F 23.0 °F 81% 30.20 in 10.0 mi NNW 26.5 mph 34.5 mph N/A   Overcast
6:54 AM 28.0 °F 14.3 °F 21.9 °F 78% 30.22 in 10.0 mi North 21.9 mph 28.8 mph N/A   Overcast
7:27 AM 28.4 °F 14.4 °F 21.2 °F 74% 30.18 in 10.0 mi NNW 23.0 mph 35.7 mph N/A   Scattered Clouds
7:37 AM 28.4 °F 14.4 °F 21.2 °F 74% 30.19 in 10.0 mi NNW 23.0 mph 29.9 mph N/A   Mostly Cloudy
7:54 AM 28.9 °F 15.8 °F 23.0 °F 78% 30.23 in 10.0 mi NNW 20.7 mph - N/A   Overcast
8:54 AM 30.0 °F 17.5 °F 23.0 °F 75% 30.25 in 10.0 mi NNW 19.6 mph 27.6 mph N/A   Overcast
9:54 AM 33.1 °F 20.9 °F 23.0 °F 66% 30.25 in 10.0 mi NNW 21.9 mph 28.8 mph N/A   Mostly Cloudy
10:04 AM 32.0 °F 18.6 °F 23.0 °F 69% 30.21 in 10.0 mi NNW 25.3 mph 32.2 mph N/A   Scattered Clouds
10:54 AM 34.0 °F 22.4 °F 23.0 °F 64% 30.24 in 10.0 mi NNW 20.7 mph 28.8 mph N/A   Clear
11:54 AM 37.0 °F 26.2 °F 25.0 °F 62% 30.23 in 10.0 mi NNW 21.9 mph 26.5 mph N/A   Clear
12:54 PM 41.0 °F 31.6 °F 26.1 °F 55% 30.21 in 10.0 mi NNW 20.7 mph 25.3 mph N/A   Clear
1:54 PM 41.0 °F 32.2 °F 25.0 °F 53% 30.19 in 10.0 mi North 18.4 mph 28.8 mph N/A   Clear
2:54 PM 41.0 °F 31.9 °F 26.1 °F 55% 30.19 in 10.0 mi North 19.6 mph 31.1 mph N/A   Clear
3:54 PM 41.0 °F 32.2 °F 25.0 °F 53% 30.19 in 10.0 mi North 18.4 mph 24.2 mph N/A   Clear
4:54 PM 39.9 °F 30.8 °F 24.1 °F 53% 30.20 in 10.0 mi North 18.4 mph 24.2 mph N/A   Clear
5:54 PM 36.0 °F 25.0 °F 24.1 °F 62% 30.23 in 10.0 mi NNW 20.7 mph 28.8 mph N/A   Clear
6:54 PM 33.1 °F 22.6 °F 24.1 °F 70% 30.25 in 10.0 mi NNW 16.1 mph 26.5 mph N/A   Clear
7:54 PM 30.9 °F 19.4 °F 24.1 °F 76% 30.27 in 10.0 mi NNW 17.3 mph - N/A   Clear
8:54 PM 30.9 °F 19.8 °F 24.1 °F 76% 30.29 in 10.0 mi North 16.1 mph 26.5 mph N/A   Clear
9:54 PM 30.0 °F 20.0 °F 24.1 °F 79% 30.29 in 10.0 mi North 12.7 mph 21.9 mph N/A   Clear
10:54 PM 30.0 °F 20.5 °F 23.0 °F 75% 30.28 in 10.0 mi NNW 11.5 mph 18.4 mph N/A   Clear
11:54 PM 28.9 °F 17.7 °F 23.0 °F 78% 30.27 in 10.0 mi NNW 15.0 mph 20.7 mph N/A   Clear